Tracking 31027 objects as of 19-Jul-2025
HD Live streaming from Space Station
objects crossing your sky now

NOAA 16 DEB

Track NOAA 16 DEB now!
10-day predictions


NORAD ID: 41250
Int'l Code: 2000-055FA
Perigee: 639.2 km
Apogee: 668.0 km
Inclination: 99.0 °
Period: 97.7 minutes
Semi major axis: 7024 km
RCS: Unknown
Launch date: September 21, 2000
Source: United States (US)
Launch site: AIR FORCE WESTERN TEST RANGE (AFWTR)

Note: This is SATELLITE DEBRIS
Your satellite tracking list
SL-16 DEB
Track 1 satellite(s)




NASA's NSSDC Master Catalog

Two Line Element Set (TLE):
1 41250U 00055FA  25198.74063312  .00031151  00000-0  46482-2 0  9990
2 41250  99.0031  19.3505 0020534  71.2026 289.1405 14.74588187496103
Source of the keplerian elements: AFSPC